This is the latest recevied weather packets stored in our database for station/object ALANSN-2. If no packets are shown the sender has not sent any weather packets the latest 10 day(s).
| Time | Temp. | Humidity | Pressure | Rain* | Wind** | Luminosity | Snow |
|---|---|---|---|---|---|---|---|
| 1787922120 | 13.33° C | 99% | 1033.2 hPa | 0 mm | - | 33 W/m² | - |
| 1787921823 | 12.22° C | 99% | 1033.2 hPa | 0 mm | - | 32 W/m² | - |
| 1787921520 | 12.22° C | 99% | 1033.2 hPa | 0 mm | - | 31 W/m² | - |
| 1787921220 | 12.22° C | 99% | 1033 hPa | 0 mm | - | 31 W/m² | - |
| 1787920920 | 11.67° C | 99% | 1033.1 hPa | 0 mm | - | 29 W/m² | - |
| 1787920620 | 11.67° C | 99% | 1033.1 hPa | 0 mm | - | 29 W/m² | - |
| 1787920325 | 11.11° C | 99% | 1032.9 hPa | 0 mm | - | 29 W/m² | - |
| 1787920020 | 10.56° C | 99% | 1032.9 hPa | 0 mm | - | 26 W/m² | - |
| 1787919720 | 10.56° C | 99% | 1032.9 hPa | 0 mm | - | 26 W/m² | - |
| 1787919420 | 10° C | 99% | 1033 hPa | 0 mm | - | 25 W/m² | - |
| 1787919120 | 10° C | 99% | 1032.8 hPa | 0 mm | - | 23 W/m² | - |
| 1787918820 | 10° C | 99% | 1032.8 hPa | 0 mm | - | 23 W/m² | - |
| 1787918519 | 9.44° C | 99% | 1032.7 hPa | 0 mm | - | 25 W/m² | - |
| 1787918217 | 8.89° C | 99% | 1032.6 hPa | 0 mm | - | 20 W/m² | - |
| 1787917917 | 8.89° C | 99% | 1032.6 hPa | 0 mm | - | 20 W/m² | - |
| 1787917619 | 8.89° C | 99% | 1032.7 hPa | 0 mm | - | 19 W/m² | - |
| 1787917320 | 8.89° C | 99% | 1032.6 hPa | 0 mm | - | 15 W/m² | - |
| 1787917021 | 8.89° C | 99% | 1032.6 hPa | 0 mm | - | 15 W/m² | - |
| 1787916720 | 8.89° C | 99% | 1032.6 hPa | 0 mm | - | 13 W/m² | - |
| 1787916420 | 8.89° C | 99% | 1032.5 hPa | 0 mm | - | 10 W/m² | - |
| 1787916120 | 8.89° C | 99% | 1032.5 hPa | 0 mm | - | 10 W/m² | - |
| 1787915821 | 8.89° C | 99% | 1032.5 hPa | 0 mm | - | 7 W/m² | - |
| 1787915518 | 8.89° C | 99% | 1032.4 hPa | 0 mm | - | 3 W/m² | - |
| 1787915225 | 8.89° C | 99% | 1032.4 hPa | 0 mm | - | 3 W/m² | - |
| 1787914920 | 8.89° C | 99% | 1032.3 hPa | 0 mm | - | 2 W/m² | - |
* Rain latest hour (hover to see other rain measurements)
** Current wind speed in m/s (hover to see current wind gust speed)